Temp
19 19 19 20 17 13 16 18 19 19 18 18 19 18 15 15 16 17 15 16 16 16 16 16 16 16 16 16 16 17 17 17 17 16 16 16 16 16 16 16 16 16 16 16 16 16 16 16 15
18 18 19 19 14 15 15 17 19 19 18 19 18 16 15 14 14 14 15 16 16 16 16 16 16 16 16 16 16 16 16 17 17 17 16 16 16 16 16 15 15 16 16 16 16 16 16 16 16
18 18 19 15 14 15 15 17 17 18 19 20 18 16 15 14 14 15 16 16 16 16 16 16 16 16 16 16 16 16 16 16 16 17 17 17 16 16 16 15 15 15 15 16 16 16 16 16 15
17 18 18 15 16 17 18 16 18 18 20 19 17 13 14 14 15 15 16 16 16 16 16 16 16 16 16 16 16 16 16 16 16 16 16 16 16 16 16 15 15 15 15 15 16 16 16 16 16
17 18 14 15 16 18 16 18 18 18 18 17 18 13 13 14 15 16 16 16 16 16 16 16 16 16 16 16 16 16 16 16 16 16 16 16 16 16 16 16 15 15 15 15 15 15 15 15 15
16 16 13 14 17 19 18 19 19 16 17 17 15 14 13 14 15 16 16 16 16 16 17 16 16 17 17 17 16 16 16 16 16 16 16 15 15 15 15 16 15 15 15 14 14 15 15 15 15
14 11 12 14 16 18 18 19 17 16 16 16 17 12 13 14 15 15 15 15 16 16 16 16 16 17 17 17 16 16 17 17 16 16 16 15 15 15 15 15 15 15 15 15 15 14 14 15 15
17 12 15 15 15 18 18 18 17 17 16 16 16 12 13 15 15 15 15 15 15 16 16 16 16 16 16 16 16 16 16 16 15 16 15 15 15 15 15 15 15 15 14 14 15 14 15 14 14
17 11 12 15 15 17 18 17 16 16 17 16 16 16 16 14 15 15 15 15 15 15 15 16 16 15 15 15 16 15 15 15 15 15 15 15 15 15 15 14 14 14 15 14 14 14 14 14 14
14 10 13 14 13 15 17 18 17 15 15 14 15 15 14 15 15 15 15 15 15 15 15 15 15 15 15 15 15 15 15 15 15 16 15 15 15 15 15 15 14 14 14 14 14 14 14 14 14
13 12 14 14 14 17 16 16 17 15 15 14 14 14 14 14 14 14 15 15 15 15 15 15 15 15 15 15 15 15 16 16 16 16 15 16 15 15 15 15 14 14 13 14 14 14 14 14 14
12 13 14 14 15 17 15 16 14 15 16 16 15 15 14 14 14 15 15 15 15 15 15 15 15 15 16 16 16 16 16 15 15 15 15 15 15 14 14 14 14 14 13 13 13 13 13 13 13
11 12 13 14 15 15 16 14 14 14 16 15 15 14 14 14 15 14 15 15 15 15 15 15 15 15 15 15 15 15 15 15 15 15 14 14 14 13 14 13 13 13 13 12 12 12 12 13 13
13 13 13 14 14 15 14 14 16 14 14 14 14 14 14 15 15 15 15 15 15 15 15 15 15 15 15 15 15 15 14 14 14 14 13 13 13 12 12 12 13 13 13 13 12 12 12 12 12
13 10 11 12 13 13 15 15 14 15 14 14 14 14 14 14 14 15 15 15 15 15 14 14 14 14 14 14 14 13 13 13 13 13 13 12 12 12 12 12 11 11 12 11 12 12 12 12 12
11 10 11 12 12 13 14 12 14 15 14 14 14 14 14 15 15 15 15 15 14 14 14 14 14 13 13 13 13 13 12 12 12 12 12 11 11 10 10 10 10 10 10 10 10 10 10 11 11
8 9 10 12 11 12 13 14 13 14 14 14 15 15 15 15 15 15 15 15 14 14 14 13 13 13 12 12 12 12 12 12 11 11 11 10 10 10 10 9 9 9 10 9 9 9 9 9 9
10 9 10 11 11 12 12 12 13 14 13 15 15 15 15 15 16 15 15 14 13 13 13 13 12 12 12 12 12 11 11 11 11 10 10 10 10 9 9 9 8 9 9 9 9 8 8 8 8
10 10 9 10 11 11 11 10 10 13 13 13 14 15 15 15 15 15 14 13 13 13 13 12 12 12 11 11 11 12 12 11 11 10 9 9 7 7 7 7 8 7 8 8 7 6 6 7 7
9 9 9 10 10 11 9 9 9 11 12 14 15 15 15 15 15 15 14 13 12 13 12 12 11 11 11 11 11 11 10 10 9 8 7 7 6 6 6 6 6 7 7 6 6 6 6 6 6
5 7 9 11 9 9 8 9 11 11 12 13 14 15 15 15 14 14 13 12 12 12 12 11 11 10 10 10 10 10 9 8 7 7 7 6 6 6 6 6 6 6 6 5 5 5 5 5 6
8 6 8 8 4 6 7 7 9 10 9 11 13 13 14 14 14 13 12 11 12 12 11 11 10 10 10 10 9 8 7 7 7 7 7 6 6 6 6 6 6 5 5 5 5 5 5 4 5
7 7 6 5 1 1 6 3 8 8 12 11 11 12 12 13 12 12 12 11 11 11 11 11 10 10 10 9 9 7 7 7 7 7 6 6 5 6 5 5 5 5 5 5 5 5 5 5 5
7 6 5 2 -2 2 5 4 5 9 12 12 12 12 13 12 12 12 11 11 11 11 11 10 10 10 9 9 8 7 7 7 7 5 5 5 6 5 5 5 5 5 5 5 5 5 5 5 5
6 5 1 4 3 5 -2 1 7 9 10 10 11 12 12 12 12 11 11 11 11 11 11 10 10 10 9 9 8 7 7 7 6 5 5 4 5 5 6 6 6 6 5 5 5 5 5 5 5
5 3 3 6 4 4 3 4 7 10 10 11 12 12 12 12 11 11 11 11 11 10 10 10 10 9 9 9 8 7 7 7 6 6 6 5 5 6 6 6 5 5 5 5 5 5 5 5 5
6 3 6 3 1 3 4 6 9 9 11 10 10 11 11 12 12 11 11 11 11 11 10 10 9 9 9 9 9 8 7 7 7 6 6 7 6 6 7 8 7 5 5 5 5 5 5 5 5
6 6 4 0 4 4 4 4 5 6 8 8 9 11 11 11 11 11 11 11 11 11 11 11 10 10 9 9 9 8 8 8 7 7 7 7 7 7 8 8 7 6 4 4 4 5 5 5 5
4 4 5 4 3 3 3 4 3 3 7 9 10 11 12 12 12 11 11 11 11 11 11 11 11 10 10 10 9 9 8 8 8 8 7 8 8 8 9 8 8 7 4 4 4 5 5 5 5
5 6 5 2 5 0 -1 3 7 6 8 9 9 10 11 11 11 11 11 11 11 11 11 10 11 10 10 9 10 9 8 8 8 8 8 8 8 9 9 9 9 8 4 4 4 4 5 6 6
Height
1530 1531 1532 1533 1544 1547 1550 1542 1532 1534 1536 1536 1530 1533 1543 1543 1548 1557 1556 1559 1561 1563 1564 1565 1564 1565 1565 1564 1563 1563 1562 1562 1562 1562 1561 1561 1560 1560 1559 1559 1558 1558 1557 1555 1554 1553 1552 1551 1551
1529 1531 1532 1532 1550 1558 1554 1536 1534 1532 1533 1536 1538 1542 1543 1551 1550 1554 1557 1559 1561 1563 1564 1564 1565 1565 1565 1565 1564 1564 1563 1563 1562 1562 1562 1561 1561 1560 1560 1559 1559 1558 1557 1556 1555 1554 1553 1552 1551
1529 1530 1533 1534 1548 1554 1551 1534 1533 1533 1532 1534 1537 1541 1545 1552 1552 1554 1557 1560 1561 1562 1564 1564 1565 1565 1565 1565 1565 1564 1564 1563 1563 1562 1562 1561 1561 1560 1559 1559 1558 1558 1557 1556 1555 1554 1553 1552 1552
1528 1532 1532 1542 1544 1536 1533 1532 1531 1531 1531 1532 1536 1543 1548 1551 1553 1556 1558 1560 1561 1563 1564 1564 1564 1565 1565 1566 1565 1565 1564 1564 1563 1563 1562 1562 1561 1560 1560 1558 1558 1558 1557 1556 1555 1554 1553 1553 1552
1527 1530 1540 1543 1540 1532 1529 1530 1530 1531 1533 1534 1535 1546 1550 1552 1553 1556 1559 1561 1562 1563 1564 1564 1565 1565 1565 1565 1565 1565 1565 1564 1564 1563 1562 1562 1561 1560 1559 1558 1558 1557 1557 1556 1555 1554 1553 1552 1552
1525 1529 1545 1550 1537 1531 1530 1531 1531 1532 1535 1536 1538 1543 1552 1553 1555 1557 1560 1561 1563 1563 1564 1565 1565 1566 1566 1566 1566 1565 1565 1564 1564 1563 1562 1561 1560 1559 1558 1557 1557 1556 1556 1555 1554 1554 1553 1552 1551
1521 1532 1542 1541 1537 1533 1531 1531 1532 1532 1536 1538 1538 1546 1551 1553 1555 1557 1560 1561 1562 1563 1564 1565 1566 1566 1565 1565 1566 1565 1564 1564 1563 1562 1561 1560 1559 1558 1557 1556 1555 1555 1554 1554 1553 1552 1551 1551 1550
1519 1526 1535 1537 1539 1534 1532 1532 1534 1534 1538 1540 1540 1545 1550 1551 1554 1557 1559 1561 1562 1562 1564 1565 1565 1565 1565 1564 1563 1563 1562 1562 1561 1560 1559 1558 1557 1556 1555 1554 1554 1553 1552 1551 1551 1550 1549 1548 1548
1517 1533 1541 1536 1537 1532 1532 1532 1536 1537 1538 1539 1541 1542 1546 1551 1554 1556 1558 1560 1561 1561 1562 1563 1564 1563 1563 1562 1562 1561 1561 1560 1559 1558 1557 1556 1555 1554 1553 1551 1551 1550 1550 1549 1548 1547 1547 1546 1545
1517 1535 1534 1532 1532 1532 1531 1531 1535 1540 1540 1544 1544 1546 1549 1552 1554 1556 1557 1559 1560 1560 1561 1561 1562 1562 1561 1561 1560 1559 1558 1558 1557 1555 1554 1553 1552 1551 1550 1548 1547 1547 1546 1545 1544 1544 1543 1542 1542
1519 1531 1528 1531 1529 1530 1531 1534 1536 1539 1544 1542 1543 1546 1549 1552 1553 1555 1557 1558 1559 1560 1559 1560 1560 1560 1559 1559 1558 1557 1556 1555 1554 1552 1550 1549 1548 1547 1545 1544 1544 1543 1541 1540 1540 1540 1539 1538 1538
1521 1526 1528 1529 1529 1530 1534 1535 1538 1540 1541 1543 1545 1547 1550 1551 1553 1554 1556 1556 1558 1558 1558 1558 1558 1558 1557 1556 1555 1554 1553 1551 1550 1548 1546 1545 1543 1542 1541 1540 1539 1538 1537 1536 1536 1535 1534 1533 1533
1520 1526 1529 1531 1532 1533 1535 1538 1539 1542 1542 1545 1548 1549 1551 1552 1553 1554 1555 1555 1556 1556 1556 1556 1555 1555 1554 1553 1552 1550 1549 1547 1546 1544 1542 1540 1538 1537 1535 1534 1533 1533 1532 1531 1530 1530 1529 1528 1527
1520 1526 1531 1533 1535 1536 1537 1540 1540 1545 1545 1546 1548 1550 1551 1552 1552 1553 1554 1554 1554 1554 1554 1553 1553 1552 1551 1550 1548 1547 1545 1543 1541 1539 1538 1536 1534 1532 1530 1529 1528 1528 1527 1526 1525 1525 1524 1523 1522
1522 1531 1534 1538 1538 1540 1539 1543 1543 1543 1545 1547 1548 1549 1550 1551 1551 1552 1553 1553 1552 1552 1551 1551 1550 1549 1548 1546 1544 1542 1541 1539 1537 1535 1533 1531 1529 1527 1525 1524 1523 1522 1522 1520 1520 1520 1518 1516 1516
1526 1534 1544 1542 1540 1541 1541 1550 1540 1542 1544 1545 1546 1547 1548 1548 1549 1550 1550 1550 1550 1550 1549 1548 1547 1546 1544 1543 1541 1539 1537 1535 1533 1531 1529 1526 1524 1522 1520 1519 1518 1517 1516 1516 1514 1513 1511 1511 1510
1537 1547 1545 1545 1543 1541 1543 1543 1539 1541 1543 1543 1543 1544 1544 1545 1546 1546 1547 1548 1548 1547 1546 1545 1544 1543 1541 1540 1537 1535 1533 1531 1529 1526 1524 1522 1520 1517 1516 1515 1514 1513 1511 1510 1508 1507 1505 1503 1502
1540 1546 1546 1547 1546 1543 1545 1545 1540 1541 1541 1539 1540 1540 1540 1540 1540 1543 1544 1545 1545 1545 1544 1543 1542 1540 1538 1536 1534 1532 1530 1527 1524 1522 1519 1517 1514 1512 1511 1510 1510 1508 1507 1505 1503 1500 1499 1497 1496
1530 1538 1547 1548 1546 1545 1546 1546 1541 1538 1538 1536 1535 1535 1536 1536 1538 1538 1540 1541 1542 1542 1541 1540 1539 1537 1535 1533 1530 1528 1526 1523 1520 1517 1514 1511 1508 1507 1506 1506 1505 1504 1502 1500 1498 1495 1493 1491 1491
1533 1541 1549 1547 1546 1546 1548 1544 1535 1531 1529 1529 1529 1531 1533 1535 1535 1535 1537 1538 1539 1539 1538 1537 1536 1534 1532 1530 1527 1524 1521 1518 1514 1511 1509 1506 1503 1502 1502 1502 1502 1501 1499 1498 1496 1494 1491 1489 1488
1548 1548 1548 1547 1550 1549 1550 1544 1534 1526 1525 1525 1525 1527 1530 1532 1532 1533 1534 1535 1536 1537 1536 1535 1533 1531 1529 1527 1524 1521 1518 1515 1511 1509 1507 1504 1503 1501 1501 1501 1500 1499 1497 1495 1494 1492 1490 1487 1486
1547 1551 1549 1552 1565 1572 1559 1571 1540 1529 1528 1524 1522 1524 1526 1528 1528 1530 1531 1533 1534 1533 1532 1531 1530 1528 1526 1524 1521 1517 1514 1511 1509 1506 1505 1503 1502 1501 1500 1499 1498 1497 1495 1493 1491 1490 1488 1486 1483
1552 1552 1554 1560 1577 1580 1567 1584 1542 1533 1527 1525 1523 1524 1526 1527 1527 1528 1530 1531 1531 1531 1530 1529 1527 1526 1524 1521 1518 1515 1512 1509 1507 1505 1503 1503 1501 1500 1499 1498 1496 1495 1493 1492 1490 1487 1485 1483 1481
1550 1554 1560 1569 1587 1597 1576 1579 1556 1536 1527 1525 1524 1524 1525 1526 1527 1528 1529 1530 1529 1528 1528 1526 1525 1523 1520 1518 1515 1512 1511 1509 1506 1504 1502 1501 1500 1498 1497 1496 1495 1493 1491 1490 1487 1485 1483 1481 1479
1554 1564 1601 1590 1598 1586 1595 1590 1546 1531 1527 1525 1525 1525 1525 1526 1526 1528 1528 1527 1527 1525 1525 1523 1521 1520 1518 1516 1513 1511 1509 1507 1505 1503 1501 1500 1498 1497 1495 1493 1492 1491 1489 1487 1484 1482 1481 1479 1476
1561 1568 1585 1583 1593 1584 1580 1574 1542 1528 1526 1524 1525 1525 1526 1525 1526 1526 1526 1525 1525 1523 1522 1520 1519 1517 1515 1513 1510 1508 1507 1505 1503 1502 1500 1498 1496 1494 1492 1491 1490 1488 1486 1484 1482 1481 1479 1477 1475
1559 1572 1565 1581 1594 1589 1573 1551 1533 1527 1525 1527 1527 1527 1525 1524 1524 1524 1524 1523 1522 1520 1518 1516 1515 1513 1512 1510 1508 1506 1504 1503 1501 1500 1498 1496 1493 1492 1491 1488 1486 1485 1483 1482 1480 1478 1477 1475 1473
1561 1564 1576 1590 1589 1591 1578 1569 1550 1536 1529 1526 1524 1522 1523 1522 1522 1522 1521 1521 1519 1517 1515 1513 1511 1510 1509 1507 1505 1504 1502 1501 1499 1497 1496 1493 1491 1490 1489 1487 1483 1481 1480 1479 1477 1476 1475 1473 1471
1568 1570 1567 1573 1579 1591 1592 1567 1536 1535 1529 1528 1526 1523 1522 1521 1520 1520 1519 1518 1516 1514 1512 1509 1508 1506 1505 1504 1503 1501 1500 1498 1495 1494 1492 1491 1489 1487 1486 1483 1481 1478 1477 1476 1474 1472 1471 1469 1468
1558 1560 1564 1581 1574 1590 1596 1567 1527 1526 1526 1527 1526 1525 1523 1520 1518 1516 1516 1514 1512 1510 1508 1506 1504 1503 1502 1501 1499 1498 1496 1495 1493 1491 1490 1489 1487 1486 1483 1481 1479 1476 1474 1473 1471 1469 1467 1466 1465
Wind_Speed
14 9 5 2 3 5 2 4 3 3 4 11 12 10 10 13 4 3 20 15 11 9 5 2 2 2 3 5 6 8 7 7 7 6 6 7 6 3 2 1 3 5 8 8 8 6 5 4 3
14 8 4 2 5 3 5 3 1 2 15 17 14 7 8 5 8 14 12 15 12 10 9 5 3 2 2 3 4 5 7 6 5 4 4 5 3 2 2 2 2 4 7 8 8 6 5 4 4
14 8 4 4 3 5 5 4 7 6 13 5 7 12 6 4 12 9 13 13 11 10 7 5 5 4 3 1 2 3 4 5 6 5 4 4 4 4 4 4 4 4 6 7 7 7 6 5 4
12 5 4 4 4 5 4 6 8 8 10 8 17 10 8 6 10 14 13 10 7 8 5 4 5 4 2 0 1 2 3 3 4 6 6 6 6 6 6 5 6 5 6 7 8 7 7 6 4
14 4 3 2 3 4 3 7 6 4 5 6 3 5 6 9 14 17 13 10 6 5 4 3 4 3 2 2 2 2 3 5 5 6 7 7 7 7 6 6 5 5 8 9 9 9 8 7 6
7 4 4 3 3 1 3 6 9 8 9 8 13 8 4 11 14 15 12 10 8 7 5 4 3 1 1 4 3 4 4 6 6 6 7 8 8 8 8 8 8 9 10 11 11 11 10 9 8
8 4 5 5 4 3 3 5 5 8 8 7 12 5 11 14 14 13 11 9 9 9 7 6 4 4 3 4 5 5 5 6 7 9 10 10 10 10 10 11 10 11 12 13 14 13 13 11 11
8 5 5 4 5 4 1 4 11 8 5 9 6 7 7 20 17 15 13 11 9 8 8 7 6 6 7 8 8 8 8 9 10 11 12 13 13 13 13 12 12 12 13 13 14 15 15 14 14
8 5 3 4 6 4 6 4 7 6 11 6 3 12 20 23 20 17 15 13 12 10 9 8 7 9 9 9 10 10 10 11 13 13 13 14 14 14 14 14 14 13 14 16 16 16 16 17 18
6 4 6 3 3 3 7 11 9 6 12 11 19 22 24 21 19 16 15 13 11 10 9 9 9 9 10 11 12 13 13 14 15 15 15 15 16 16 16 17 16 16 17 18 19 20 19 20 20
4 5 4 3 1 12 7 6 5 19 2 9 27 24 22 20 17 15 14 11 9 9 9 9 9 10 11 12 13 14 15 16 17 17 18 19 19 18 18 18 19 20 20 20 20 21 22 23 23
8 6 4 5 4 7 3 7 7 1 5 15 20 21 21 20 18 16 13 10 10 10 9 10 11 12 13 14 15 15 16 18 18 19 20 20 20 20 21 21 21 21 21 22 22 22 22 22 23
7 4 8 9 14 13 11 9 7 6 13 19 19 19 19 18 16 15 13 12 12 11 11 12 13 13 14 15 16 17 17 18 19 19 20 21 22 23 23 22 22 22 22 23 23 23 24 25 25
11 16 8 10 10 7 6 4 3 8 16 18 18 17 17 16 15 13 13 13 12 12 12 13 14 15 15 16 16 15 16 17 17 18 19 20 21 23 24 24 24 25 25 24 26 28 28 27 27
20 9 6 11 6 3 4 1 3 15 16 16 16 16 15 14 14 14 13 13 13 14 15 15 15 15 15 14 15 16 17 18 19 19 20 20 22 23 24 24 24 25 26 27 27 27 28 30 30
6 5 5 4 5 1 3 5 3 13 17 16 15 16 16 17 15 13 14 14 12 14 16 16 15 14 14 15 16 17 18 18 19 19 19 19 19 20 21 22 23 25 26 26 28 28 29 28 29
7 5 4 2 5 2 2 4 2 11 14 15 16 17 17 17 17 17 15 14 13 14 16 15 15 14 14 15 16 17 18 19 20 21 21 22 23 23 24 24 23 25 26 27 28 30 31 32 31
5 7 4 4 2 2 1 6 2 11 13 18 18 20 20 20 20 19 19 16 14 14 16 15 14 14 15 16 17 18 19 20 22 23 23 23 24 23 23 21 19 19 21 23 25 26 26 28 30
6 6 7 0 2 1 2 5 9 16 16 22 22 22 23 22 17 17 19 17 13 13 15 13 14 14 15 16 18 20 21 22 23 23 23 23 23 21 18 16 16 15 14 13 13 15 18 20 21
7 8 4 1 4 1 3 10 11 12 13 26 29 26 23 21 20 17 18 15 12 12 14 14 14 14 15 18 20 22 24 25 25 22 19 18 17 14 13 12 9 10 12 11 13 15 19 18 17
6 6 3 3 4 4 5 7 5 4 7 17 23 25 22 21 20 17 18 14 12 12 14 14 13 15 16 18 20 21 22 21 16 14 11 7 7 5 3 5 7 8 11 14 15 16 17 21 19
5 4 3 4 4 2 4 4 6 4 8 5 7 10 14 13 15 16 16 13 11 13 15 14 14 15 17 18 19 21 19 16 13 10 7 5 3 3 4 4 6 9 13 15 17 18 18 19 22
4 3 5 3 5 4 7 4 8 4 4 5 8 9 8 8 7 10 10 10 11 14 15 12 13 16 17 17 18 18 14 14 12 9 7 4 4 1 3 6 7 9 12 14 17 19 18 17 18
4 5 7 4 4 3 3 3 6 3 1 3 4 3 4 3 7 8 8 10 13 15 13 14 16 16 17 18 17 14 13 12 9 8 7 7 4 3 5 5 7 9 11 14 17 17 15 14 16
5 5 3 4 4 5 2 3 9 4 6 6 7 3 4 5 6 8 9 12 14 14 16 17 18 17 18 18 15 11 11 10 9 9 8 7 10 7 6 7 9 9 11 14 15 14 12 13 15
3 4 5 5 2 4 3 5 6 2 2 4 1 2 3 5 7 9 11 11 13 15 17 19 19 19 18 17 13 11 9 8 8 9 10 10 11 12 13 11 9 11 12 13 14 12 11 11 12
1 3 2 6 4 3 3 7 6 4 2 2 5 7 10 10 10 9 8 9 12 15 18 19 20 19 18 16 13 11 10 10 10 11 13 13 12 13 16 13 12 10 11 13 14 12 10 10 11
3 2 3 3 2 3 5 6 5 3 3 7 9 12 11 10 11 11 10 11 14 17 18 18 18 18 17 16 14 12 12 12 13 13 13 14 13 14 14 14 12 12 11 13 14 12 11 9 10
1 1 3 3 4 4 1 6 6 5 4 4 6 9 9 13 14 15 17 20 23 23 22 20 17 16 16 16 14 13 12 13 12 12 13 14 14 14 15 14 14 13 12 13 13 12 13 11 10
3 4 4 4 4 1 3 6 4 6 7 5 10 11 22 18 19 19 22 25 27 24 24 21 16 17 16 17 16 15 14 13 11 11 11 12 12 12 12 13 13 12 11 12 13 13 13 11 11
Wind_Direction
176 168 179 172 70 67 240 256 311 92 70 66 84 101 109 62 57 138 142 150 153 148 146 135 137 117 70 82 74 69 74 79 82 80 71 66 65 83 37 77 39 19 18 20 24 28 28 34 50
172 170 162 122 95 106 261 256 116 213 139 114 91 103 48 73 94 123 136 166 168 165 155 179 204 170 113 70 68 69 69 70 72 66 56 48 44 9 358 332 294 350 4 11 12 16 18 20 36
169 169 170 108 142 176 212 199 151 134 158 151 112 75 80 90 120 129 141 157 182 171 164 180 188 181 172 115 62 54 58 56 55 46 31 22 19 12 340 312 298 297 345 355 358 360 1 2 14
162 161 89 109 211 233 204 179 173 143 82 87 113 72 87 123 143 140 143 142 160 172 179 200 185 177 170 75 20 34 22 13 17 24 24 12 359 351 349 321 288 276 319 337 338 342 344 344 350
159 146 78 124 240 279 187 184 170 117 97 89 130 112 80 118 138 143 141 148 162 162 182 182 165 130 74 13 359 335 342 346 351 352 350 346 344 342 336 335 314 283 307 319 322 323 327 327 323
125 140 97 186 205 162 78 186 127 88 101 105 98 96 107 127 135 140 155 167 178 182 163 158 161 197 327 316 342 336 342 347 342 332 323 320 323 324 326 322 309 296 299 305 309 309 310 311 308
123 100 180 167 188 173 152 124 86 102 98 57 123 86 138 140 144 155 163 173 175 178 182 182 192 224 253 269 287 295 300 295 287 300 306 308 308 310 309 305 303 300 297 297 299 301 300 299 297
125 95 129 191 179 193 104 99 102 76 74 108 138 154 174 153 150 154 165 169 170 186 191 206 221 244 250 242 252 265 265 277 289 292 290 290 294 296 300 300 295 294 299 298 296 297 298 296 292
129 80 153 181 163 161 154 106 72 99 110 89 125 148 155 155 156 161 166 174 177 186 200 209 221 234 249 255 261 267 272 272 277 280 281 283 287 289 291 291 291 287 287 288 290 291 294 293 289
96 103 182 171 277 176 131 114 122 98 96 84 107 128 148 160 165 174 180 188 192 202 211 221 233 245 256 262 266 273 277 279 281 281 281 282 285 286 285 284 284 289 285 281 283 286 288 288 289
101 143 157 357 199 143 108 92 103 126 41 162 148 149 158 165 173 186 191 196 206 220 224 236 247 257 265 271 275 280 283 282 283 284 284 283 282 280 278 278 278 279 278 276 279 283 285 285 287
97 68 114 15 56 104 75 99 87 96 152 169 159 158 166 175 183 193 202 213 228 239 250 261 270 276 280 285 287 287 284 283 283 282 281 281 279 280 280 279 275 274 276 278 276 275 279 281 282
89 127 75 78 77 78 115 77 131 99 131 153 163 170 176 185 194 204 215 227 240 253 266 275 281 286 289 289 288 288 287 285 284 283 281 280 280 279 277 275 273 273 272 273 274 273 275 276 277
123 105 91 70 67 68 100 97 118 160 152 163 174 181 190 200 205 213 227 239 251 263 274 281 286 291 293 294 295 293 291 290 288 285 282 278 279 279 278 276 276 276 275 272 271 272 275 275 277
108 84 54 25 25 62 105 54 201 178 177 177 187 195 202 209 223 235 245 259 270 283 286 285 288 290 294 296 297 299 298 297 294 293 292 289 284 278 277 278 278 278 279 280 279 274 272 274 274
78 63 101 323 4 29 73 252 225 184 187 200 207 210 216 225 240 249 256 265 274 292 290 287 287 293 298 300 302 303 302 301 298 297 294 290 288 286 283 279 279 280 281 284 286 287 285 280 276
19 133 103 123 31 345 101 242 256 182 204 217 221 222 227 232 236 241 250 259 278 294 296 290 292 297 300 303 304 304 304 304 303 300 296 293 289 286 283 282 284 286 286 285 284 282 283 285 284
163 105 74 130 308 46 119 262 243 215 223 234 235 233 232 234 240 247 248 250 266 293 298 292 295 300 304 305 305 305 305 303 301 300 297 295 290 286 286 289 291 292 293 292 290 289 285 281 282
114 98 109 83 300 107 240 272 260 254 246 248 247 240 236 237 244 243 234 239 259 291 296 295 301 302 304 306 307 305 305 304 305 303 301 298 292 289 286 290 299 309 315 323 331 325 320 300 286
81 101 60 49 3 85 356 284 260 248 241 242 245 243 243 241 241 241 231 237 261 287 299 304 304 304 307 307 308 309 312 314 313 310 309 307 304 300 289 296 308 317 326 338 338 334 330 327 326
40 86 98 111 350 25 340 303 305 300 252 259 251 252 254 250 242 243 230 238 256 289 301 308 304 307 307 307 311 313 314 313 312 308 308 328 343 355 333 312 320 349 346 349 346 339 333 324 316
75 336 76 54 72 204 19 273 300 309 309 304 302 254 249 236 233 224 223 233 271 295 305 305 304 307 309 312 314 318 322 325 326 333 340 7 11 348 340 348 345 358 353 348 345 343 330 326 317
135 61 75 71 80 66 349 71 271 343 324 340 341 218 204 223 210 201 219 260 282 296 301 304 306 309 311 315 318 320 322 322 319 331 350 36 42 49 338 337 343 346 348 337 333 328 322 322 321
126 64 42 57 89 32 286 114 284 248 235 326 345 178 190 212 207 216 239 266 286 293 298 307 311 314 315 317 320 316 319 321 322 333 347 352 14 337 313 321 321 323 330 325 326 331 331 330 325
65 64 360 2 10 218 287 41 248 279 281 279 262 227 206 202 202 214 253 278 290 293 300 307 312 315 312 314 315 311 314 316 323 327 329 336 345 340 318 307 302 312 321 320 325 334 333 332 334
85 132 147 200 202 268 12 241 254 275 349 17 224 257 223 211 228 257 275 281 287 294 297 304 308 309 307 309 314 310 308 313 323 324 318 321 325 330 321 302 307 313 317 322 325 332 335 322 336
317 42 165 100 35 43 257 287 312 311 310 323 304 268 250 247 264 260 265 291 303 300 297 299 300 302 302 304 307 303 298 303 308 305 309 317 321 320 304 307 303 310 308 313 320 319 319 313 316
94 185 63 3 126 265 284 277 239 293 304 347 338 322 280 264 263 252 255 285 308 319 328 302 297 297 297 298 298 295 292 294 297 303 306 308 309 304 306 304 312 312 309 306 307 304 305 305 305
34 8 68 114 143 171 273 266 219 215 214 234 298 318 298 276 273 261 267 285 298 305 311 306 292 294 296 294 294 291 289 293 301 305 310 310 305 302 300 309 310 311 309 306 306 304 295 294 297
177 189 155 127 221 185 146 274 273 240 248 215 337 345 328 307 285 278 281 289 293 296 305 298 284 288 293 291 291 288 286 289 295 301 315 315 317 314 316 319 320 321 316 313 310 307 301 292 285